NOAA 16 DEB

Satellite information

Favourite Embed

Satellite Type and Status

DEBRISIN ORBIT

Key statistics

Satellite NOAA 16 DEB at a glance.

Uptime

9055

Days in orbit

Revolutions

≈ 14.3

Per day

Orbit

SSO

Sun Synchronous Orbit

Inclination

99.0

Latest

Satellite identification and parameters

Extended collection of information and parameters for NOAA 16 DEB.

Object identification

Identified? True

Debris? True

Object name: NOAA 16 DEB

International designator: 2000-055PZ

Object number (NORAD): 42333

Object ID (CCSDS): 42333

Country: UNITED STATES OF AMERICA (US)

Current information (Y/N): Y

RCS size: SMALL

Orbital parameters

Period: 101.052 minutes

Inclination: 98.9536 deg

SMA: 7186.62 km

Apoapsis: 821.78 km

Periapsis: 795.19 km

RAAN: 300.6426 deg

Eccentricy: 0.00185

Argument of periapsis: 149.2828 deg

Mean anomaly: 210.9437 deg

Mean motion: 14.2500289 rev/day

Mean motion (dot): 0.00003822 rev/day2

B* drag term: 0.0016491 1/REarth

Two-line elements (TLE)

Creation date: July 4, 2025, 6:39 p.m.

Reference frame: TEME

Reference center: EARTH

Epoch: July 4, 2025, 6:39 a.m. UTC

TLE line 0: 0 NOAA 16 DEB

TLE line 1: 1 42333U 00055PZ 25185.27750764 .00003822 00000-0 16491-2 0 9992

TLE line 2: 2 42333 98.9536 300.6426 0018500 149.2828 210.9437 14.25002890480386

Live tracking on map

Real-time ground track for satellite NOAA 16 DEB.

In-orbit conjunctions

A list of the most updated potential collisions computed for object NOAA 16 DEB.

Target Orbit TCA Probability of collision Miss distance Type
FASAT B SSO 2025-05-02 19:58:30 0.0001879357 861.0 (m) PAYLOAD
RADCAL LEO 2024-08-27 11:52:19 0.0002773255 708.0 (m) PAYLOAD

Associated space launch

The NOAA K, L and M POES satellites begin the fifth generation of improved environmental monitoring in support of NOAA missions. The instrument payload has significant improvements and additions/deletions. The instrument changes have effected the spacecraft subsystems and data formats.

NOAA 16 DEB was lifted into orbit during the mission ‘Titan II SLV | NOAA 16’, on board a Titan II SLV space rocket.

The launch took place on Sept. 21, 2000, 10:22 a.m. from Space Launch Complex 4W.

For more information about the launch, click the button.

Launch to space Titan II SLV | NOAA 16
Titan II SLV | NOAA 16

Agency: N/A

Status: Launch Successful

Launch date: Sept. 21, 2000, 10:22 a.m. UTC

Rocket: Titan II SLV

Launch pad: Space Launch Complex 4W

Location: Vandenberg SFB, CA, USA

...

Latest news about this satellite

There are no fresh news available about this satellite. Check back as we update our databases every day.


Newsletter sign-up

Weekly statistics, charts and insights to help you stay on top of the space industry.